Cloud_Cover
100 84 82 100 91 100 66 26 93 87 60 76 100 64 74 97 58 100 100 100 100 100 100 100 100 48 1 0 5 1 5 0 0 0 0 0 0 0 0 0 0 0 0 2 4 2 5 15 42
77 45 56 28 65 75 51 53 6 63 79 100 100 9 42 77 72 100 98 100 100 100 100 100 50 3 0 0 4 4 0 0 0 0 0 0 2 2 0 0 0 4 11 11 0 2 4 100 100
5 15 5 94 100 64 9 23 90 86 98 91 6 5 37 95 82 55 23 91 100 31 6 11 0 0 0 0 0 0 0 0 0 0 7 0 1 0 0 0 0 5 0 2 0 2 2 0 27
24 32 77 98 73 70 57 60 5 6 12 5 21 17 42 35 17 24 70 100 95 6 0 0 0 0 0 0 0 0 0 0 4 0 0 0 0 0 0 0 13 0 0 5 1 0 0 0 0
72 98 77 94 74 33 6 54 17 5 6 5 5 88 75 96 99 56 43 4 2 4 0 0 0 0 0 0 1 10 0 0 0 0 0 0 0 0 0 0 13 1 0 11 0 5 5 100 13
21 37 91 98 90 86 36 6 63 83 46 20 55 15 46 14 36 48 7 0 0 0 0 8 0 0 0 0 0 0 0 0 0 0 0 0 0 0 0 0 4 1 10 2 5 24 5 14 53
5 33 64 100 95 100 66 2 5 25 34 100 60 96 99 96 88 72 0 0 0 0 0 0 0 2 3 0 0 0 0 0 0 0 4 0 0 1 0 2 4 0 0 4 3 4 5 100 99
6 52 55 68 66 99 100 99 100 92 92 100 100 100 92 64 100 36 0 0 1 9 0 0 0 0 0 0 0 0 0 0 0 0 0 0 4 4 1 4 5 0 4 2 5 0 0 70 100
15 100 98 100 99 62 100 100 80 13 6 23 100 100 100 100 99 17 14 24 45 34 26 8 0 0 0 0 0 0 0 3 2 0 0 0 0 1 5 70 87 5 43 5 6 1 0 0 0
5 100 41 14 100 53 6 14 5 4 4 5 21 5 50 69 20 47 52 54 46 42 60 20 12 14 13 0 0 0 5 5 0 0 0 0 0 0 5 0 3 2 0 0 1 5 0 2 0
5 13 49 64 10 100 99 100 100 99 91 96 100 100 8 30 35 42 45 5 14 16 56 35 16 25 12 0 1 5 0 0 0 0 0 0 1 5 5 0 0 0 2 4 0 18 0 0 0
5 5 17 99 62 31 55 12 8 54 100 100 100 99 8 16 32 37 48 7 24 43 59 30 27 44 24 10 14 9 10 7 10 0 0 0 0 6 5 0 0 0 0 0 0 8 2 0 0
5 98 84 49 72 0 2 11 9 22 56 23 38 5 1 0 0 0 0 0 0 30 58 32 41 56 30 16 22 22 22 13 1 0 0 0 0 0 14 53 53 0 71 0 0 4 0 0 0
5 60 65 46 73 0 0 0 4 4 5 13 0 2 0 0 0 0 0 0 0 0 2 7 32 45 25 5 16 15 12 1 0 0 0 0 0 0 1 0 9 0 0 0 0 7 0 0 98
5 5 12 5 18 0 0 0 0 0 26 56 88 0 1 0 0 0 0 0 0 0 0 0 2 26 21 0 0 6 0 0 0 0 4 51 0 1 0 0 0 0 0 0 0 17 0 0 20
5 5 2 5 0 0 8 0 0 5 5 89 97 0 0 0 0 0 0 0 0 0 0 0 0 2 0 0 0 0 0 0 0 71 100 2 0 1 2 0 0 0 0 0 99 0 0 0 56
0 0 4 5 5 5 0 0 2 8 12 66 98 0 0 0 0 0 0 0 0 0 0 0 0 0 0 0 0 0 0 0 0 91 0 15 9 1 0 0 8 10 0 0 0 1 0 0 12
0 0 0 2 5 0 0 0 5 5 26 72 50 0 0 0 0 0 0 0 0 0 0 0 0 0 0 0 0 0 0 0 0 0 0 0 0 0 0 100 38 0 0 0 0 0 0 0 0
0 0 0 0 5 0 0 0 5 24 30 5 5 4 0 0 0 0 0 0 0 0 0 0 0 0 0 0 0 0 0 0 0 0 0 0 0 0 0 50 6 0 0 0 0 0 0 0 0
0 0 0 0 1 0 0 4 2 1 16 39 98 100 2 0 0 0 0 0 0 0 0 0 0 0 0 0 0 0 0 0 0 0 0 0 1 7 23 45 4 0 0 0 0 0 0 0 0
0 0 0 0 5 2 0 0 4 48 1 8 5 57 9 0 0 0 0 0 0 0 0 0 0 0 0 0 0 2 0 2 0 0 0 0 0 13 83 100 0 0 0 0 0 0 0 0 0
0 0 0 0 0 2 3 0 0 28 2 5 5 1 2 0 0 0 0 0 0 0 0 0 0 0 0 0 0 0 0 0 0 0 0 0 0 0 0 80 0 0 0 0 0 0 0 0 0
0 0 0 0 0 0 3 0 0 0 0 5 5 4 0 0 0 0 0 0 0 0 0 0 0 0 0 0 0 0 0 0 0 0 0 0 0 0 0 0 0 0 0 0 0 0 0 0 0
0 0 0 0 0 5 0 0 0 0 4 2 0 0 0 0 0 0 0 0 0 0 0 0 0 0 0 0 0 0 0 0 0 0 0 0 0 0 0 0 0 0 0 0 0 0 0 1 0
0 0 0 0 0 99 0 0 0 1 1 0 0 1 3 3 0 0 0 0 0 0 0 0 0 0 0 0 0 0 0 0 0 0 0 0 1 10 0 0 0 0 0 0 0 0 0 0 0
0 0 0 0 0 0 0 49 0 5 0 4 84 98 38 5 5 2 0 0 0 0 0 0 0 0 0 0 0 0 0 0 0 0 0 0 0 0 0 0 0 0 0 0 0 0 2 0 0
0 0 0 0 0 0 2 5 0 2 4 35 91 8 1 4 5 0 3 0 1 1 0 0 0 0 0 0 0 0 0 0 0 0 0 0 0 0 0 0 0 0 0 0 0 0 0 0 2
0 0 0 0 0 0 0 0 4 0 0 5 33 2 1 5 57 40 5 4 5 5 2 0 0 0 0 0 0 0 0 0 0 0 0 0 0 0 0 0 0 0 0 0 0 0 0 0 0
0 0 0 0 0 0 0 0 4 0 0 0 3 5 5 5 4 39 45 86 65 99 22 4 0 0 0 0 0 0 0 0 0 0 0 0 0 0 0 0 0 0 0 0 0 0 0 0 0
0 0 0 0 0 0 0 0 0 0 0 3 0 0 42 8 32 4 12 64 100 83 96 5 2 5 0 0 0 0 0 0 0 0 0 0 0 0 0 0 0 0 0 0 0 0 0 0 0